GW2973 Weather Reports


time (UTC)temp
C
wind
direction
speed
KPH
gust
KPH
rain 1hr
cm
rain 24hr
cm
rain mn
cm
humidity
%
barometer
mb
20260901175522 18 103 0.0 0.0 0.00 0.00 0.00 64 1023.7
20260901175017 18 228 4.8 4.8 0.00 0.00 0.00 64 1023.8
20260901174513 18 259 3.2 4.8 0.00 0.00 0.00 64 1023.7
20260901174009 18 129 0.0 1.6 0.00 0.00 0.00 63 1023.4
20260901173504 18 236 3.2 4.8 0.00 0.00 0.00 63 1023.6
20260901172959 18 245 0.0 0.0 0.00 0.00 0.00 62 1023.5
20260901172454 18 158 1.6 3.2 0.00 0.00 0.00 63 1023.4
20260901171952 18 140 0.0 1.6 0.00 0.00 0.00 63 1023.4
20260901171451 18 177 1.6 1.6 0.00 0.00 0.00 64 1023.3
20260901170950 17 126 0.0 0.0 0.00 0.00 0.00 66 1023.3
20260901170445 17 184 3.2 3.2 0.00 0.00 0.00 65 1023.4
20260901165944 17 118 1.6 1.6 0.00 0.00 0.00 65 1023.3
20260901165439 17 159 1.6 1.6 0.00 0.00 0.00 66 1023.1
20260901164935 17 113 0.0 1.6 0.00 0.00 0.00 65 1023.3
20260901164430 17 222 0.0 3.2 0.00 0.00 0.00 64 1023.2
20260901163925 17 133 0.0 1.6 0.00 0.00 0.00 63 1023.2
20260901163419 17 129 0.0 1.6 0.00 0.00 0.00 65 1023.0
20260901162914 17 149 1.6 1.6 0.00 0.00 0.00 67 1023.1
20260901162414 17 121 0.0 0.0 0.00 0.00 0.00 70 1023.0
20260901161907 17 116 0.0 0.0 0.00 0.00 0.00 72 1022.9
20260901161406 17 69 1.6 1.6 0.00 0.00 0.00 72 1023.1
20260901160902 17 124 0.0 0.0 0.00 0.00 0.00 73 1023.1
20260901160358 17 132 0.0 0.0 0.00 0.00 0.00 72 1023.0
20260901155857 17 125 0.0 0.0 0.00 0.00 0.00 72 1023.3
20260901155353 17 133 0.0 0.0 0.00 0.00 0.00 71 1022.8
20260901154849 17 121 0.0 0.0 0.00 0.00 0.00 71 1022.9
20260901154348 17 119 0.0 0.0 0.00 0.00 0.00 71 1023.0
20260901153843 17 117 0.0 0.0 0.00 0.00 0.00 71 1022.8
20260901153338 16 127 0.0 0.0 0.00 0.00 0.00 73 1022.8
20260901152837 16 123 0.0 0.0 0.00 0.00 0.00 73 1022.8
20260901152336 16 128 0.0 0.0 0.00 0.00 0.00 73 1022.6
20260901151831 16 127 0.0 0.0 0.00 0.00 0.00 74 1022.6
20260901151326 16 127 0.0 0.0 0.00 0.00 0.00 74 1022.8
20260901150825 16 128 0.0 0.0 0.00 0.00 0.00 76 1022.7
20260901150323 16 128 0.0 0.0 0.00 0.00 0.00 76 1022.6
20260901145822 16 128 0.0 0.0 0.00 0.00 0.00 77 1022.6
20260901145321 16 121 0.0 1.6 0.00 0.00 0.00 77 1022.5
20260901144816 16 128 0.0 0.0 0.00 0.00 0.00 77 1022.6
20260901144312 15 128 0.0 1.6 0.00 0.00 0.00 77 1022.4
20260901143808 15 128 0.0 0.0 0.00 0.00 0.00 77 1022.4
20260901143304 15 128 0.0 0.0 0.00 0.00 0.00 77 1022.5
20260901142800 15 150 1.6 1.6 0.00 0.00 0.00 77 1022.3
20260901142258 15 149 0.0 1.6 0.00 0.00 0.00 77 1022.2
20260901141754 15 159 0.0 0.0 0.00 0.00 0.00 76 1021.9
20260901141249 15 220 1.6 3.2 0.00 0.00 0.00 76 1021.9
20260901140748 15 135 0.0 0.0 0.00 0.00 0.00 76 1022.0
20260901140246 15 134 0.0 1.6 0.00 0.00 0.00 76 1021.9
20260901135741 15 130 0.0 0.0 0.00 0.00 0.00 76 1022.0
20260901135236 15 132 0.0 0.0 0.00 0.00 0.00 76 1021.9
20260901134731 15 132 0.0 0.0 0.00 0.00 0.00 77 1021.8
20260901134226 15 133 0.0 0.0 0.00 0.00 0.00 76 1021.8
20260901133725 15 132 0.0 0.0 0.00 0.00 0.00 76 1022.0
20260901133225 15 132 0.0 0.0 0.00 0.00 0.00 76 1021.5
20260901132723 15 132 0.0 0.0 0.00 0.00 0.00 76 1021.6
20260901132218 15 132 0.0 0.0 0.00 0.00 0.00 76 1021.4
20260901131713 15 131 0.0 0.0 0.00 0.00 0.00 77 1021.4
20260901131207 15 131 0.0 0.0 0.00 0.00 0.00 77 1021.9
20260901130702 15 131 0.0 0.0 0.00 0.00 0.00 77 1021.5
20260901130200 15 130 0.0 0.0 0.00 0.00 0.00 77 1021.5
20260901125658 15 130 0.0 0.0 0.00 0.00 0.00 77 1021.4
20260901125153 15 130 0.0 0.0 0.00 0.00 0.00 76 1021.2
20260901124648 15 131 0.0 0.0 0.00 0.00 0.00 76 1021.2
20260901124143 15 131 0.0 0.0 0.00 0.00 0.00 76 1021.0
20260901123637 15 140 0.0 0.0 0.00 0.00 0.00 77 1021.2
20260901123132 15 140 0.0 0.0 0.00 0.00 0.00 77 1020.9
20260901122630 15 168 1.6 3.2 0.00 0.00 0.00 77 1021.0
20260901122125 15 137 0.0 0.0 0.00 0.00 0.00 77 1021.1
20260901121619 15 137 0.0 0.0 0.00 0.00 0.00 77 1020.9
20260901121115 15 137 0.0 0.0 0.00 0.00 0.00 78 1021.0
20260901120609 15 137 0.0 0.0 0.00 0.00 0.00 78 1021.0
20260901120104 15 137 0.0 0.0 0.00 0.00 0.00 78 1021.0
20260901115559 15 137 0.0 0.0 0.00 0.00 0.00 79 1021.3
20260901115056 15 137 0.0 0.0 0.00 0.00 0.00 79 1021.1
20260901114552 15 137 0.0 0.0 0.00 0.00 0.00 78 1021.1
20260901114051 15 137 0.0 0.0 0.00 0.00 0.00 79 1021.1
20260901113549 15 137 0.0 0.0 0.00 0.00 0.00 79 1021.0
20260901113045 15 137 0.0 0.0 0.00 0.00 0.00 79 1021.3
20260901112539 15 137 0.0 0.0 0.00 0.00 0.00 79 1021.3
20260901112034 15 137 0.0 0.0 0.00 0.00 0.00 79 1021.3
20260901111533 15 137 0.0 0.0 0.00 0.00 0.00 78 1021.4
20260901111031 15 137 0.0 0.0 0.00 0.00 0.00 78 1021.5
20260901110528 15 137 0.0 0.0 0.00 0.00 0.00 78 1021.2
20260901110023 15 137 0.0 0.0 0.00 0.00 0.00 78 1021.3
20260901105519 15 137 0.0 0.0 0.00 0.00 0.00 78 1021.4
20260901105013 15 138 0.0 0.0 0.00 0.00 0.00 78 1021.4
20260901104509 15 137 0.0 0.0 0.00 0.00 0.00 78 1021.4
20260901104003 15 137 0.0 0.0 0.00 0.00 0.00 78 1021.4
20260901103458 15 134 0.0 0.0 0.00 0.00 0.00 78 1021.4
20260901102954 15 134 0.0 0.0 0.00 0.00 0.00 78 1021.2
20260901102448 15 136 0.0 0.0 0.00 0.00 0.00 78 1021.4
20260901101942 15 136 0.0 0.0 0.00 0.00 0.00 78 1021.2
20260901101437 15 131 0.0 0.0 0.00 0.00 0.00 78 1021.1
20260901100932 15 128 0.0 0.0 0.00 0.00 0.00 78 1021.1
20260901100426 15 124 0.0 0.0 0.00 0.00 0.00 79 1021.0
20260901095920 15 124 0.0 0.0 0.00 0.00 0.00 78 1021.2
20260901095419 15 126 0.0 0.0 0.00 0.00 0.00 79 1021.1
20260901094912 15 126 0.0 0.0 0.00 0.00 0.00 79 1021.2
20260901094407 15 126 0.0 0.0 0.00 0.00 0.00 79 1021.1
20260901093906 15 113 0.0 0.0 0.00 0.00 0.00 79 1021.1
20260901093406 15 113 0.0 0.0 0.00 0.00 0.00 79 1021.1
20260901092902 15 113 0.0 0.0 0.00 0.00 0.00 79 1021.2
20260901092357 15 113 0.0 0.0 0.00 0.00 0.00 79 1021.0
20260901091853 15 165 1.6 1.6 0.00 0.00 0.00 80 1021.2
20260901091353 15 134 0.0 0.0 0.00 0.00 0.00 80 1021.4
20260901090848 15 125 0.0 0.0 0.00 0.00 0.00 81 1021.2
20260901090342 15 124 0.0 0.0 0.00 0.00 0.00 82 1021.1
20260901085838 15 124 0.0 0.0 0.00 0.00 0.00 82 1021.2
20260901085333 15 131 0.0 0.0 0.00 0.00 0.00 82 1021.1
20260901084830 15 136 0.0 0.0 0.00 0.00 0.00 82 1021.1
20260901084325 15 131 0.0 0.0 0.00 0.00 0.00 81 1021.2
20260901083820 15 122 0.0 0.0 0.00 0.00 0.00 81 1021.2
20260901083315 15 100 0.0 0.0 0.00 0.00 0.00 80 1021.2
20260901082813 15 198 1.6 3.2 0.00 0.00 0.00 80 1021.3
20260901082309 15 130 0.0 0.0 0.00 0.00 0.00 80 1021.0
20260901081803 15 126 0.0 0.0 0.00 0.00 0.00 80 1021.2
20260901081258 15 182 3.2 3.2 0.00 0.00 0.00 82 1021.1
20260901080753 15 135 0.0 0.0 0.00 0.00 0.00 84 1021.2
20260901080252 15 98 0.0 0.0 0.00 0.00 0.00 85 1021.1
20260901075747 15 165 1.6 1.6 0.00 0.00 0.00 84 1021.1
20260901075241 15 136 0.0 0.0 0.00 0.00 0.00 83 1021.2
20260901074736 15 121 0.0 0.0 0.00 0.00 0.00 82 1021.4
20260901074231 15 121 0.0 0.0 0.00 0.00 0.00 82 1021.1
20260901073727 15 145 0.0 0.0 0.00 0.00 0.00 83 1021.3
20260901073223 15 146 0.0 0.0 0.00 0.00 0.00 82 1021.3
20260901072718 15 137 0.0 0.0 0.00 0.00 0.00 82 1021.2
20260901072213 15 135 0.0 0.0 0.00 0.00 0.00 81 1021.2
20260901071712 15 123 0.0 0.0 0.00 0.00 0.00 81 1021.2
20260901071207 15 120 0.0 0.0 0.00 0.00 0.00 81 1021.2
20260901070701 15 357 1.6 1.6 0.00 0.00 0.00 81 1021.2
20260901070156 15 137 0.0 0.0 0.00 0.00 0.00 80 1021.4
20260901065655 15 137 0.0 0.0 0.00 0.00 0.00 80 1021.0
20260901065150 15 137 0.0 0.0 0.00 0.00 0.00 80 1021.0
20260901064647 15 137 0.0 0.0 0.00 0.00 0.00 80 1021.1
20260901064143 15 137 0.0 0.0 0.00 0.00 0.00 80 1021.3
20260901063641 15 136 0.0 0.0 0.00 0.00 0.00 81 1021.2
20260901063136 15 96 0.0 0.0 0.00 0.00 0.00 81 1021.3
20260901062632 15 128 0.0 0.0 0.00 0.00 0.00 81 1021.2
20260901062127 15 81 0.0 0.0 0.00 0.00 0.00 81 1021.3
20260901061624 15 212 3.2 3.2 0.00 0.00 0.00 81 1021.2
20260901061123 15 96 0.0 0.0 0.00 0.00 0.00 81 1021.3
20260901060623 15 198 3.2 4.8 0.00 0.00 0.00 81 1021.4
20260901060119 15 213 3.2 3.2 0.00 0.00 0.00 81 1021.5
20260901055614 15 115 1.6 1.6 0.00 0.00 0.00 81 1021.2
20260901055110 15 155 0.0 0.0 0.00 0.00 0.00 82 1021.6
20260901054607 15 146 0.0 0.0 0.00 0.00 0.00 82 1021.4
20260901054103 15 92 0.0 0.0 0.00 0.00 0.00 82 1021.3
20260901053559 15 93 0.0 0.0 0.00 0.00 0.00 82 1021.4
20260901053055 15 183 0.0 1.6 0.00 0.00 0.00 82 1021.8
20260901052549 15 114 0.0 0.0 0.00 0.00 0.00 82 1021.8
20260901052049 15 85 0.0 0.0 0.00 0.00 0.00 82 1021.3
20260901051544 15 138 1.6 1.6 0.00 0.00 0.00 82 1021.5
20260901051043 15 225 3.2 4.8 0.00 0.00 0.00 82 1021.2
20260901050544 15 121 0.0 0.0 0.00 0.00 0.00 82 1021.3
20260901050039 15 135 0.0 0.0 0.00 0.00 0.00 82 1021.3
20260901045535 15 91 0.0 0.0 0.00 0.00 0.00 82 1021.3
20260901045034 15 90 0.0 0.0 0.00 0.00 0.00 82 1021.2
20260901044531 15 129 0.0 0.0 0.00 0.00 0.00 82 1020.9
20260901044026 15 130 0.0 0.0 0.00 0.00 0.00 82 1021.0
20260901043522 15 116 0.0 0.0 0.00 0.00 0.00 82 1021.0
20260901043017 15 191 1.6 3.2 0.00 0.00 0.00 82 1021.1
20260901042516 15 132 0.0 0.0 0.00 0.00 0.00 81 1021.0
20260901042012 15 137 0.0 0.0 0.00 0.00 0.00 81 1021.2
20260901041507 15 74 1.6 1.6 0.00 0.00 0.00 82 1021.0
20260901041001 15 245 0.0 0.0 0.00 0.00 0.00 82 1020.9
20260901040456 15 116 0.0 0.0 0.00 0.00 0.00 81 1021.1
20260901035955 15 204 3.2 3.2 0.00 0.00 0.00 81 1020.8
20260901035454 15 206 3.2 3.2 0.00 0.00 0.00 81 1020.7
20260901034952 15 228 0.0 1.6 0.00 0.00 0.00 82 1020.7
20260901034452 15 166 1.6 1.6 0.00 0.00 0.00 83 1020.8
20260901033948 15 117 0.0 0.0 0.00 0.00 0.00 82 1020.6
20260901033446 15 83 0.0 0.0 0.00 0.00 0.00 81 1020.7
20260901032945 15 45 3.2 3.2 0.00 0.00 0.00 81 1020.7
20260901032440 15 303 3.2 4.8 0.00 0.00 0.00 81 1020.4
20260901031935 15 240 3.2 4.8 0.00 0.00 0.00 81 1020.5
20260901031431 15 88 0.0 0.0 0.00 0.00 0.00 81 1020.4
20260901030930 15 207 3.2 3.2 0.00 0.00 0.00 82 1020.6
20260901030426 15 88 1.6 1.6 0.00 0.00 0.00 82 1020.3
20260901025924 15 66 1.6 1.6 0.00 0.00 0.00 81 1020.6
20260901025420 15 149 1.6 3.2 0.00 0.00 0.00 81 1020.2
20260901024919 15 75 0.0 1.6 0.00 0.00 0.00 81 1020.4
20260901024414 15 148 1.6 1.6 0.00 0.00 0.00 82 1020.5
20260901023913 15 121 0.0 0.0 0.00 0.00 0.00 81 1020.3
20260901023407 16 264 3.2 4.8 0.00 0.00 0.00 81 1020.3
20260901022902 15 131 0.0 1.6 0.00 0.00 0.00 79 1020.2
20260901022358 15 143 1.6 3.2 0.00 0.00 0.00 79 1020.2
20260901021853 15 69 1.6 3.2 0.00 0.00 0.00 79 1020.0
20260901021349 16 87 0.0 1.6 0.00 0.00 0.00 80 1020.1
20260901020844 16 223 3.2 3.2 0.00 0.00 0.00 80 1020.2
20260901020339 16 160 1.6 3.2 0.00 0.00 0.00 79 1020.1
20260901015838 16 209 3.2 6.4 0.00 0.00 0.00 79 1020.0
20260901015335 16 239 3.2 4.8 0.00 0.00 0.00 78 1020.2
20260901014834 16 131 1.6 3.2 0.00 0.00 0.00 79 1020.3
20260901014331 16 59 0.0 0.0 0.00 0.00 0.00 78 1020.1
20260901013826 16 288 6.4 6.4 0.00 0.00 0.00 78 1020.0
20260901013321 16 29 3.2 4.8 0.00 0.00 0.00 77 1020.1
20260901012817 16 245 4.8 6.4 0.00 0.00 0.00 77 1020.4
20260901012311 16 337 4.8 4.8 0.00 0.00 0.00 76 1020.4
20260901011808 16 157 3.2 3.2 0.00 0.00 0.00 75 1020.3
20260901011302 17 212 4.8 6.4 0.00 0.00 0.00 75 1020.2
20260901010756 17 122 1.6 1.6 0.00 0.00 0.00 76 1020.2
20260901010250 17 356 6.4 9.7 0.00 0.00 0.00 76 1020.2
20260901005749 17 181 4.8 11.3 0.00 0.00 0.00 75 1020.2
20260901005245 17 110 1.6 3.2 0.00 0.00 0.00 77 1020.1
20260901004744 17 310 8.0 11.3 0.00 0.00 0.00 75 1020.1
20260901004239 17 187 3.2 4.8 0.00 0.00 0.00 75 1020.2
20260901003734 17 261 8.0 11.3 0.00 0.00 0.00 74 1020.3
20260901003233 17 63 3.2 4.8 0.00 0.00 0.00 76 1020.2
20260901002727 17 229 8.0 11.3 0.00 0.00 0.00 76 1020.4
20260901002222 17 20 3.2 4.8 0.00 0.00 0.00 77 1020.2
20260901001717 18 239 6.4 9.7 0.00 0.00 0.00 75 1020.3
20260901001212 17 166 6.4 9.7 0.00 0.00 0.00 76 1020.1
20260901000707 17 194 3.2 4.8 0.00 0.00 0.00 76 1020.0
20260901000203 17 295 6.4 6.4 0.00 0.00 0.00 74 1020.1
20260831235656 18 235 8.0 9.7 0.00 0.00 0.00 74 1020.3
20260831235152 18 240 8.0 16.1 0.00 0.00 0.00 72 1020.4
20260831234651 17 298 3.2 4.8 0.00 0.00 0.00 73 1020.2
20260831234147 18 149 4.8 6.4 0.00 0.00 0.00 72 1020.3
20260831233642 18 64 1.6 1.6 0.00 0.00 0.00 71 1020.6
20260831233137 18 167 4.8 4.8 0.00 0.00 0.00 72 1020.6
20260831232632 18 43 6.4 6.4 0.00 0.00 0.00 71 1020.5
20260831232128 18 59 3.2 4.8 0.00 0.00 0.00 72 1020.4
20260831231624 18 188 9.7 12.9 0.00 0.00 0.00 71 1020.7
20260831231120 18 262 6.4 16.1 0.00 0.00 0.00 72 1020.4
20260831230615 18 208 4.8 4.8 0.00 0.00 0.00 70 1020.3
20260831230110 18 222 9.7 12.9 0.00 0.00 0.00 70 1020.6
20260831225604 18 205 3.2 3.2 0.00 0.00 0.00 70 1020.5
20260831225059 18 36 3.2 3.2 0.00 0.00 0.00 71 1020.5
20260831224554 18 202 3.2 3.2 0.00 0.00 0.00 71 1020.4
20260831224049 19 251 4.8 6.4 0.00 0.00 0.00 70 1020.7
20260831223544 19 135 4.8 4.8 0.00 0.00 0.00 69 1020.7
20260831223040 18 300 3.2 6.4 0.00 0.00 0.00 71 1020.8
20260831222536 18 253 8.0 9.7 0.00 0.00 0.00 71 1020.6
20260831222031 18 326 3.2 4.8 0.00 0.00 0.00 73 1020.9
20260831221527 18 273 3.2 4.8 0.00 0.00 0.00 74 1020.8
20260831221021 17 68 3.2 3.2 0.00 0.00 0.00 76 1020.9
20260831220517 18 186 1.6 1.6 0.00 0.00 0.00 74 1021.2
20260831220012 18 223 3.2 3.2 0.00 0.00 0.00 74 1021.2
20260831215508 18 323 4.8 9.7 0.00 0.00 0.00 74 1021.3
20260831215003 17 65 1.6 3.2 0.00 0.00 0.00 75 1021.6
20260831214501 18 52 3.2 4.8 0.00 0.00 0.00 75 1021.3
20260831213956 17 28 1.6 3.2 0.00 0.00 0.00 74 1021.2
20260831213453 17 120 0.0 1.6 0.00 0.00 0.00 75 1021.4
20260831212952 17 301 8.0 11.3 0.00 0.00 0.00 75 1021.3
20260831212448 17 330 4.8 6.4 0.00 0.00 0.00 76 1021.4
20260831211943 17 1 3.2 3.2 0.00 0.00 0.00 77 1021.5
20260831211438 17 46 3.2 4.8 0.00 0.00 0.00 78 1021.6
20260831210937 17 57 6.4 6.4 0.00 0.00 0.00 77 1021.8
20260831210433 17 186 1.6 3.2 0.00 0.00 0.00 78 1021.8
20260831205929 17 208 6.4 6.4 0.00 0.00 0.00 78 1021.8
20260831205424 17 200 4.8 4.8 0.00 0.00 0.00 78 1022.0
20260831204924 17 208 4.8 6.4 0.00 0.00 0.00 77 1021.9
20260831204423 17 283 3.2 3.2 0.00 0.00 0.00 77 1021.5
20260831203918 17 217 4.8 6.4 0.00 0.00 0.00 76 1021.9
20260831203412 17 90 1.6 3.2 0.00 0.00 0.00 77 1021.6
20260831202911 17 218 3.2 6.4 0.00 0.00 0.00 77 1021.8
20260831202406 17 66 3.2 3.2 0.00 0.00 0.00 77 1022.0
20260831201906 17 179 1.6 3.2 0.00 0.00 0.00 78 1021.9
20260831201404 17 165 3.2 3.2 0.00 0.00 0.00 78 1021.6
20260831200900 17 273 1.6 3.2 0.00 0.00 0.00 78 1021.9
20260831200355 16 198 6.4 9.7 0.00 0.00 0.00 79 1022.0
20260831195850 16 310 4.8 4.8 0.00 0.00 0.00 80 1021.6
20260831195346 16 168 3.2 4.8 0.00 0.00 0.00 80 1021.8
20260831194842 16 243 3.2 4.8 0.00 0.00 0.00 81 1021.6
20260831194337 16 177 3.2 6.4 0.00 0.00 0.00 81 1021.9
20260831193836 16 249 4.8 4.8 0.00 0.00 0.00 81 1021.9
20260831193331 16 180 1.6 1.6 0.00 0.00 0.00 81 1021.9
20260831192826 16 159 3.2 3.2 0.00 0.00 0.00 81 1021.9
20260831192320 16 200 3.2 3.2 0.00 0.00 0.00 82 1022.1
20260831191816 16 224 4.8 4.8 0.00 0.00 0.00 81 1022.0
20260831191312 16 124 1.6 3.2 0.00 0.00 0.00 82 1022.1
20260831190808 16 284 1.6 3.2 0.00 0.00 0.00 82 1022.1
20260831190308 16 159 1.6 1.6 0.00 0.00 0.00 82 1022.1
20260831185807 16 161 3.2 3.2 0.00 0.00 0.00 82 1022.0
20260831185306 16 211 4.8 4.8 0.00 0.00 0.00 82 1021.9
20260831184802 16 247 4.8 4.8 0.00 0.00 0.00 82 1022.0
20260831184252 16 151 3.2 6.4 0.00 0.00 0.00 82 1022.1
20260831183748 16 256 4.8 6.4 0.00 0.00 0.00 82 1022.2
20260831183247 16 145 3.2 4.8 0.00 0.00 0.00 83 1022.3
20260831182746 16 163 1.6 1.6 0.00 0.00 0.00 83 1022.1
20260831182241 16 153 1.6 1.6 0.00 0.00 0.00 84 1021.9
20260831181736 16 175 3.2 4.8 0.00 0.00 0.00 84 1022.2
20260831181231 16 196 4.8 6.4 0.00 0.00 0.00 86 1022.0
20260831180731 15 197 6.4 9.7 0.00 0.00 0.00 87 1022.1
20260831180226 15 229 1.6 3.2 0.00 0.00 0.00 88 1022.0